Time,TemperatureF,DewpointF,PressureIn,WindDirection,WindDirectionDegrees,WindSpeedMPH,WindSpeedGustMPH,Humidity,HourlyPrecipIn,Conditions,Clouds,dailyrainin,SoftwareType,DateUTC
2013-03-06 00:00:00,38.3,36.6,29.93,North,-999,-999.0,-999.0,91,-99.99,,,-99.99,Homeseer,2013-03-06 05:00:00,
2013-03-06 00:05:00,38.4,36.7,29.93,North,-999,-999.0,-999.0,91,-99.99,,,-99.99,Homeseer,2013-03-06 05:05:00,
2013-03-06 00:10:00,38.0,36.9,29.93,North,-999,-999.0,-999.0,94,-99.99,,,-99.99,Homeseer,2013-03-06 05:10:00,
2013-03-06 00:15:00,38.0,36.9,29.93,North,-999,-999.0,-999.0,94,-99.99,,,-99.99,Homeseer,2013-03-06 05:15:00,
2013-03-06 00:20:00,38.2,36.5,29.92,North,-999,-999.0,-999.0,91,-99.99,,,-99.99,Homeseer,2013-03-06 05:20:00,
2013-03-06 00:25:00,38.2,36.5,29.92,North,-999,-999.0,-999.0,91,-99.99,,,-99.99,Homeseer,2013-03-06 05:25:00,
2013-03-06 00:30:00,38.1,36.6,29.92,North,-999,-999.0,-999.0,92,-99.99,,,-99.99,Homeseer,2013-03-06 05:30:00,
2013-03-06 00:34:00,37.8,36.3,29.91,North,-999,-999.0,-999.0,92,-99.99,,,-99.99,Homeseer,2013-03-06 05:34:00,
2013-03-06 00:39:00,37.7,36.2,29.92,North,-999,-999.0,-999.0,92,-99.99,,,-99.99,Homeseer,2013-03-06 05:39:00,
2013-03-06 00:43:00,37.7,36.2,29.91,North,-999,-999.0,-999.0,92,-99.99,,,-99.99,Homeseer,2013-03-06 05:43:00,
2013-03-06 00:48:00,38.0,36.7,29.91,North,-999,-999.0,-999.0,93,-99.99,,,-99.99,Homeseer,2013-03-06 05:48:00,
2013-03-06 00:53:00,37.8,36.5,29.91,North,-999,-999.0,-999.0,93,-99.99,,,-99.99,Homeseer,2013-03-06 05:53:00,
2013-03-06 00:58:00,37.6,36.5,29.91,North,-999,-999.0,-999.0,94,-99.99,,,-99.99,Homeseer,2013-03-06 05:58:00,
2013-03-06 01:03:00,37.7,36.6,29.91,North,-999,-999.0,-999.0,94,-99.99,,,-99.99,Homeseer,2013-03-06 06:03:00,
2013-03-06 01:08:00,37.8,36.9,29.92,North,-999,-999.0,-999.0,95,-99.99,,,-99.99,Homeseer,2013-03-06 06:08:00,
2013-03-06 01:13:00,38.2,37.1,29.91,North,-999,-999.0,-999.0,94,-99.99,,,-99.99,Homeseer,2013-03-06 06:13:00,
2013-03-06 01:18:00,38.3,37.0,29.92,North,-999,-999.0,-999.0,93,-99.99,,,-99.99,Homeseer,2013-03-06 06:18:00,
2013-03-06 01:23:00,38.1,37.0,29.92,North,-999,-999.0,-999.0,94,-99.99,,,-99.99,Homeseer,2013-03-06 06:23:00,
2013-03-06 01:28:00,38.3,37.0,29.92,North,-999,-999.0,-999.0,93,-99.99,,,-99.99,Homeseer,2013-03-06 06:28:00,
2013-03-06 01:33:00,38.4,37.3,29.91,North,-999,-999.0,-999.0,94,-99.99,,,-99.99,Homeseer,2013-03-06 06:33:00,
2013-03-06 01:38:00,38.4,37.1,29.91,North,-999,-999.0,-999.0,93,-99.99,,,-99.99,Homeseer,2013-03-06 06:38:00,
2013-03-06 01:43:00,38.4,37.3,29.91,North,-999,-999.0,-999.0,94,-99.99,,,-99.99,Homeseer,2013-03-06 06:43:00,
2013-03-06 01:48:00,38.8,37.5,29.91,North,-999,-999.0,-999.0,93,-99.99,,,-99.99,Homeseer,2013-03-06 06:48:00,
2013-03-06 01:53:00,38.6,37.5,29.91,North,-999,-999.0,-999.0,94,-99.99,,,-99.99,Homeseer,2013-03-06 06:53:00,
2013-03-06 01:58:00,38.8,37.5,29.91,North,-999,-999.0,-999.0,93,-99.99,,,-99.99,Homeseer,2013-03-06 06:58:00,
2013-03-06 02:04:00,38.6,37.3,29.91,North,-999,-999.0,-999.0,93,-99.99,,,-99.99,Homeseer,2013-03-06 07:04:00,
2013-03-06 02:09:00,38.6,37.1,29.92,North,-999,-999.0,-999.0,92,-99.99,,,-99.99,Homeseer,2013-03-06 07:09:00,
2013-03-06 02:14:00,38.9,37.4,29.91,North,-999,-999.0,-999.0,92,-99.99,,,-99.99,Homeseer,2013-03-06 07:14:00,
2013-03-06 02:20:00,38.9,37.2,29.91,North,-999,-999.0,-999.0,91,-99.99,,,-99.99,Homeseer,2013-03-06 07:20:00,
2013-03-06 02:26:00,39.1,37.6,29.91,North,-999,-999.0,-999.0,92,-99.99,,,-99.99,Homeseer,2013-03-06 07:26:00,
2013-03-06 02:32:00,39.2,37.5,29.91,North,-999,-999.0,-999.0,91,-99.99,,,-99.99,Homeseer,2013-03-06 07:32:00,
2013-03-06 02:37:00,39.2,37.7,29.90,North,-999,-999.0,-999.0,92,-99.99,,,-99.99,Homeseer,2013-03-06 07:37:00,
2013-03-06 02:42:00,39.3,37.8,29.91,North,-999,-999.0,-999.0,92,-99.99,,,-99.99,Homeseer,2013-03-06 07:42:00,
2013-03-06 02:47:00,39.4,37.7,29.91,North,-999,-999.0,-999.0,91,-99.99,,,-99.99,Homeseer,2013-03-06 07:47:00,
2013-03-06 02:52:00,39.4,37.7,29.91,North,-999,-999.0,-999.0,91,-99.99,,,-99.99,Homeseer,2013-03-06 07:52:00,
2013-03-06 02:58:00,39.2,37.7,29.91,North,-999,-999.0,-999.0,92,-99.99,,,-99.99,Homeseer,2013-03-06 07:58:00,
2013-03-06 03:03:00,39.1,37.6,29.91,North,-999,-999.0,-999.0,92,-99.99,,,-99.99,Homeseer,2013-03-06 08:03:00,
2013-03-06 03:08:00,39.0,37.3,29.91,North,-999,-999.0,-999.0,91,-99.99,,,-99.99,Homeseer,2013-03-06 08:08:00,
2013-03-06 03:13:00,39.3,37.6,29.92,North,-999,-999.0,-999.0,91,-99.99,,,-99.99,Homeseer,2013-03-06 08:13:00,
2013-03-06 03:18:00,39.0,37.3,29.92,North,-999,-999.0,-999.0,91,-99.99,,,-99.99,Homeseer,2013-03-06 08:18:00,
2013-03-06 03:23:00,39.1,37.4,29.92,North,-999,-999.0,-999.0,91,-99.99,,,-99.99,Homeseer,2013-03-06 08:23:00,
2013-03-06 03:28:00,39.3,37.6,29.92,North,-999,-999.0,-999.0,91,-99.99,,,-99.99,Homeseer,2013-03-06 08:28:00,
2013-03-06 03:33:00,39.2,37.5,29.93,North,-999,-999.0,-999.0,91,-99.99,,,-99.99,Homeseer,2013-03-06 08:33:00,
2013-03-06 03:38:00,39.3,37.1,29.92,North,-999,-999.0,-999.0,89,-99.99,,,-99.99,Homeseer,2013-03-06 08:38:00,
2013-03-06 03:43:00,39.3,37.6,29.93,North,-999,-999.0,-999.0,91,-99.99,,,-99.99,Homeseer,2013-03-06 08:43:00,
2013-03-06 03:48:00,39.3,37.4,29.93,North,-999,-999.0,-999.0,90,-99.99,,,-99.99,Homeseer,2013-03-06 08:48:00,
2013-03-06 03:53:00,39.4,37.7,29.93,North,-999,-999.0,-999.0,91,-99.99,,,-99.99,Homeseer,2013-03-06 08:53:00,
2013-03-06 03:58:00,39.2,37.5,29.94,North,-999,-999.0,-999.0,91,-99.99,,,-99.99,Homeseer,2013-03-06 08:58:00,
2013-03-06 04:03:00,39.2,37.7,29.94,North,-999,-999.0,-999.0,92,-99.99,,,-99.99,Homeseer,2013-03-06 09:03:00,
2013-03-06 04:08:00,39.3,38.0,29.94,North,-999,-999.0,-999.0,93,-99.99,,,-99.99,Homeseer,2013-03-06 09:08:00,
2013-03-06 04:13:00,39.2,37.9,29.94,North,-999,-999.0,-999.0,93,-99.99,,,-99.99,Homeseer,2013-03-06 09:13:00,
2013-03-06 04:18:00,38.9,37.6,29.93,North,-999,-999.0,-999.0,93,-99.99,,,-99.99,Homeseer,2013-03-06 09:18:00,
2013-03-06 04:23:00,38.8,37.5,29.94,North,-999,-999.0,-999.0,93,-99.99,,,-99.99,Homeseer,2013-03-06 09:23:00,
2013-03-06 04:28:00,38.8,37.7,29.94,North,-999,-999.0,-999.0,94,-99.99,,,-99.99,Homeseer,2013-03-06 09:28:00,
2013-03-06 04:33:00,38.5,37.4,29.93,North,-999,-999.0,-999.0,94,-99.99,,,-99.99,Homeseer,2013-03-06 09:33:00,
2013-03-06 04:38:00,38.6,37.3,29.93,North,-999,-999.0,-999.0,93,-99.99,,,-99.99,Homeseer,2013-03-06 09:38:00,
2013-03-06 04:43:00,38.6,37.5,29.93,North,-999,-999.0,-999.0,94,-99.99,,,-99.99,Homeseer,2013-03-06 09:43:00,
2013-03-06 04:48:00,38.4,37.3,29.93,North,-999,-999.0,-999.0,94,-99.99,,,-99.99,Homeseer,2013-03-06 09:48:00,
2013-03-06 04:53:00,38.5,37.6,29.93,North,-999,-999.0,-999.0,95,-99.99,,,-99.99,Homeseer,2013-03-06 09:53:00,
2013-03-06 04:58:00,38.3,37.4,29.93,North,-999,-999.0,-999.0,95,-99.99,,,-99.99,Homeseer,2013-03-06 09:58:00,
2013-03-06 05:03:00,38.2,37.4,29.93,North,-999,-999.0,-999.0,96,-99.99,,,-99.99,Homeseer,2013-03-06 10:03:00,
2013-03-06 05:08:00,38.4,37.6,29.93,North,-999,-999.0,-999.0,96,-99.99,,,-99.99,Homeseer,2013-03-06 10:08:00,
2013-03-06 05:13:00,38.2,37.3,29.94,North,-999,-999.0,-999.0,95,-99.99,,,-99.99,Homeseer,2013-03-06 10:13:00,
2013-03-06 05:19:00,38.2,37.4,29.93,North,-999,-999.0,-999.0,96,-99.99,,,-99.99,Homeseer,2013-03-06 10:19:00,
2013-03-06 05:24:00,38.4,37.5,29.93,North,-999,-999.0,-999.0,95,-99.99,,,-99.99,Homeseer,2013-03-06 10:24:00,
2013-03-06 05:29:00,38.2,37.3,29.93,North,-999,-999.0,-999.0,95,-99.99,,,-99.99,Homeseer,2013-03-06 10:29:00,
2013-03-06 05:34:00,38.2,37.4,29.93,North,-999,-999.0,-999.0,96,-99.99,,,-99.99,Homeseer,2013-03-06 10:34:00,
2013-03-06 05:39:00,38.1,37.5,29.93,North,-999,-999.0,-999.0,97,-99.99,,,-99.99,Homeseer,2013-03-06 10:39:00,
2013-03-06 05:44:00,38.0,37.4,29.93,North,-999,-999.0,-999.0,97,-99.99,,,-99.99,Homeseer,2013-03-06 10:44:00,
2013-03-06 05:49:00,38.2,37.4,29.93,North,-999,-999.0,-999.0,96,-99.99,,,-99.99,Homeseer,2013-03-06 10:49:00,
2013-03-06 05:54:00,38.3,37.5,29.93,North,-999,-999.0,-999.0,96,-99.99,,,-99.99,Homeseer,2013-03-06 10:54:00,
2013-03-06 05:59:00,38.0,37.4,29.93,North,-999,-999.0,-999.0,97,-99.99,,,-99.99,Homeseer,2013-03-06 10:59:00,
2013-03-06 06:04:00,38.2,37.6,29.93,North,-999,-999.0,-999.0,97,-99.99,,,-99.99,Homeseer,2013-03-06 11:04:00,
2013-03-06 06:09:00,38.1,37.5,29.93,North,-999,-999.0,-999.0,97,-99.99,,,-99.99,Homeseer,2013-03-06 11:09:00,
2013-03-06 06:15:00,38.4,38.0,29.93,North,-999,-999.0,-999.0,98,-99.99,,,-99.99,Homeseer,2013-03-06 11:15:00,
2013-03-06 06:20:00,38.3,37.5,29.93,North,-999,-999.0,-999.0,96,-99.99,,,-99.99,Homeseer,2013-03-06 11:20:00,
2013-03-06 06:25:00,37.8,37.0,29.93,North,-999,-999.0,-999.0,96,-99.99,,,-99.99,Homeseer,2013-03-06 11:25:00,
2013-03-06 06:30:00,38.1,37.5,29.93,North,-999,-999.0,-999.0,97,-99.99,,,-99.99,Homeseer,2013-03-06 11:30:00,
2013-03-06 06:35:00,38.0,37.4,29.94,North,-999,-999.0,-999.0,97,-99.99,,,-99.99,Homeseer,2013-03-06 11:35:00,
2013-03-06 06:40:00,38.4,38.0,29.95,North,-999,-999.0,-999.0,98,-99.99,,,-99.99,Homeseer,2013-03-06 11:40:00,
2013-03-06 06:45:00,38.6,38.2,29.95,North,-999,-999.0,-999.0,98,-99.99,,,-99.99,Homeseer,2013-03-06 11:45:00,
2013-03-06 06:50:00,39.0,38.2,29.95,North,-999,-999.0,-999.0,96,-99.99,,,-99.99,Homeseer,2013-03-06 11:50:00,
2013-03-06 06:56:00,39.0,38.4,29.95,North,-999,-999.0,-999.0,97,-99.99,,,-99.99,Homeseer,2013-03-06 11:56:00,
2013-03-06 07:01:00,38.9,38.3,29.96,North,-999,-999.0,-999.0,97,-99.99,,,-99.99,Homeseer,2013-03-06 12:01:00,
2013-03-06 07:06:00,38.9,38.3,29.96,North,-999,-999.0,-999.0,97,-99.99,,,-99.99,Homeseer,2013-03-06 12:06:00,
2013-03-06 07:12:00,39.0,38.4,29.97,North,-999,-999.0,-999.0,97,-99.99,,,-99.99,Homeseer,2013-03-06 12:12:00,
2013-03-06 07:17:00,39.0,38.4,29.97,North,-999,-999.0,-999.0,97,-99.99,,,-99.99,Homeseer,2013-03-06 12:17:00,
2013-03-06 07:22:00,38.9,38.3,29.98,North,-999,-999.0,-999.0,97,-99.99,,,-99.99,Homeseer,2013-03-06 12:22:00,
2013-03-06 07:28:00,39.0,38.2,29.98,North,-999,-999.0,-999.0,96,-99.99,,,-99.99,Homeseer,2013-03-06 12:28:00,
2013-03-06 07:33:00,39.0,38.2,29.98,North,-999,-999.0,-999.0,96,-99.99,,,-99.99,Homeseer,2013-03-06 12:33:00,
2013-03-06 07:38:00,39.0,38.1,29.99,North,-999,-999.0,-999.0,95,-99.99,,,-99.99,Homeseer,2013-03-06 12:38:00,
2013-03-06 07:43:00,39.1,38.1,29.99,North,-999,-999.0,-999.0,95,-99.99,,,-99.99,Homeseer,2013-03-06 12:43:00,
2013-03-06 07:49:00,38.8,37.9,29.99,North,-999,-999.0,-999.0,95,-99.99,,,-99.99,Homeseer,2013-03-06 12:49:00,
2013-03-06 07:54:00,39.3,38.2,30.00,North,-999,-999.0,-999.0,94,-99.99,,,-99.99,Homeseer,2013-03-06 12:54:00,
2013-03-06 08:00:00,39.5,38.5,30.00,North,-999,-999.0,-999.0,95,-99.99,,,-99.99,Homeseer,2013-03-06 13:00:00,
2013-03-06 08:05:00,39.3,38.2,29.99,North,-999,-999.0,-999.0,94,-99.99,,,-99.99,Homeseer,2013-03-06 13:05:00,
2013-03-06 08:10:00,39.6,38.5,29.99,North,-999,-999.0,-999.0,94,-99.99,,,-99.99,Homeseer,2013-03-06 13:10:00,
2013-03-06 08:15:00,39.6,38.3,29.99,North,-999,-999.0,-999.0,93,-99.99,,,-99.99,Homeseer,2013-03-06 13:15:00,
2013-03-06 08:20:00,40.0,38.8,29.99,North,-999,-999.0,-999.0,94,-99.99,,,-99.99,Homeseer,2013-03-06 13:20:00,
2013-03-06 08:25:00,39.6,38.1,29.99,North,-999,-999.0,-999.0,92,-99.99,,,-99.99,Homeseer,2013-03-06 13:25:00,
2013-03-06 08:30:00,40.0,38.6,29.98,North,-999,-999.0,-999.0,93,-99.99,,,-99.99,Homeseer,2013-03-06 13:30:00,
2013-03-06 08:35:00,39.5,37.8,29.99,North,-999,-999.0,-999.0,91,-99.99,,,-99.99,Homeseer,2013-03-06 13:35:00,
2013-03-06 08:40:00,39.4,37.7,29.98,North,-999,-999.0,-999.0,91,-99.99,,,-99.99,Homeseer,2013-03-06 13:40:00,
2013-03-06 08:45:00,39.1,36.9,29.98,North,-999,-999.0,-999.0,89,-99.99,,,-99.99,Homeseer,2013-03-06 13:45:00,
2013-03-06 08:50:00,39.3,37.1,29.98,North,-999,-999.0,-999.0,89,-99.99,,,-99.99,Homeseer,2013-03-06 13:50:00,
2013-03-06 08:55:00,39.5,37.3,29.99,North,-999,-999.0,-999.0,89,-99.99,,,-99.99,Homeseer,2013-03-06 13:55:00,
2013-03-06 09:00:00,39.4,37.2,29.99,North,-999,-999.0,-999.0,89,-99.99,,,-99.99,Homeseer,2013-03-06 14:00:00,
2013-03-06 09:05:00,39.0,36.9,29.99,North,-999,-999.0,-999.0,89,-99.99,,,-99.99,Homeseer,2013-03-06 14:05:00,
2013-03-06 09:10:00,39.2,37.0,29.99,North,-999,-999.0,-999.0,89,-99.99,,,-99.99,Homeseer,2013-03-06 14:10:00,
2013-03-06 09:16:00,39.3,36.7,29.98,North,-999,-999.0,-999.0,87,-99.99,,,-99.99,Homeseer,2013-03-06 14:16:00,
2013-03-06 09:21:00,39.0,36.4,29.99,North,-999,-999.0,-999.0,87,-99.99,,,-99.99,Homeseer,2013-03-06 14:21:00,
2013-03-06 09:26:00,39.2,36.8,29.99,North,-999,-999.0,-999.0,88,-99.99,,,-99.99,Homeseer,2013-03-06 14:26:00,
2013-03-06 09:31:00,39.5,37.1,29.99,North,-999,-999.0,-999.0,88,-99.99,,,-99.99,Homeseer,2013-03-06 14:31:00,
2013-03-06 09:36:00,39.9,37.5,29.99,North,-999,-999.0,-999.0,88,-99.99,,,-99.99,Homeseer,2013-03-06 14:36:00,
2013-03-06 09:41:00,39.5,37.1,30.01,North,-999,-999.0,-999.0,88,-99.99,,,-99.99,Homeseer,2013-03-06 14:41:00,
2013-03-06 09:46:00,39.3,37.1,30.01,North,-999,-999.0,-999.0,89,-99.99,,,-99.99,Homeseer,2013-03-06 14:46:00,
2013-03-06 09:51:00,38.3,36.6,30.02,North,-999,-999.0,-999.0,91,-99.99,,,-99.99,Homeseer,2013-03-06 14:51:00,
2013-03-06 09:56:00,37.8,36.3,30.01,North,-999,-999.0,-999.0,92,-99.99,,,-99.99,Homeseer,2013-03-06 14:56:00,
2013-03-06 10:01:00,38.4,37.1,30.01,North,-999,-999.0,-999.0,93,-99.99,,,-99.99,Homeseer,2013-03-06 15:01:00,
2013-03-06 10:07:00,38.9,37.6,30.00,North,-999,-999.0,-999.0,93,-99.99,,,-99.99,Homeseer,2013-03-06 15:07:00,
2013-03-06 10:12:00,39.2,37.7,30.00,North,-999,-999.0,-999.0,92,-99.99,,,-99.99,Homeseer,2013-03-06 15:12:00,
2013-03-06 10:17:00,39.5,37.8,30.01,North,-999,-999.0,-999.0,91,-99.99,,,-99.99,Homeseer,2013-03-06 15:17:00,
2013-03-06 10:22:00,39.8,37.4,30.01,North,-999,-999.0,-999.0,88,-99.99,,,-99.99,Homeseer,2013-03-06 15:22:00,
2013-03-06 10:27:00,40.1,37.9,30.00,North,-999,-999.0,-999.0,89,-99.99,,,-99.99,Homeseer,2013-03-06 15:27:00,
2013-03-06 10:32:00,40.7,38.1,29.99,North,-999,-999.0,-999.0,87,-99.99,,,-99.99,Homeseer,2013-03-06 15:32:00,
2013-03-06 10:37:00,40.3,36.6,29.99,North,-999,-999.0,-999.0,82,-99.99,,,-99.99,Homeseer,2013-03-06 15:37:00,
2013-03-06 10:42:00,40.6,37.1,29.99,North,-999,-999.0,-999.0,83,-99.99,,,-99.99,Homeseer,2013-03-06 15:42:00,
2013-03-06 10:47:00,40.3,37.1,30.00,North,-999,-999.0,-999.0,84,-99.99,,,-99.99,Homeseer,2013-03-06 15:47:00,
2013-03-06 10:52:00,39.4,37.2,29.99,North,-999,-999.0,-999.0,89,-99.99,,,-99.99,Homeseer,2013-03-06 15:52:00,
2013-03-06 10:57:00,39.1,37.4,29.99,North,-999,-999.0,-999.0,91,-99.99,,,-99.99,Homeseer,2013-03-06 15:57:00,
2013-03-06 11:02:00,38.3,36.6,29.99,North,-999,-999.0,-999.0,91,-99.99,,,-99.99,Homeseer,2013-03-06 16:02:00,
2013-03-06 11:07:00,38.1,36.8,29.99,North,-999,-999.0,-999.0,93,-99.99,,,-99.99,Homeseer,2013-03-06 16:07:00,
2013-03-06 11:12:00,38.0,36.7,29.98,North,-999,-999.0,-999.0,93,-99.99,,,-99.99,Homeseer,2013-03-06 16:12:00,
2013-03-06 11:17:00,38.0,36.5,29.99,North,-999,-999.0,-999.0,92,-99.99,,,-99.99,Homeseer,2013-03-06 16:17:00,
2013-03-06 11:22:00,38.0,36.7,29.99,North,-999,-999.0,-999.0,93,-99.99,,,-99.99,Homeseer,2013-03-06 16:22:00,
2013-03-06 11:27:00,38.3,37.2,29.99,North,-999,-999.0,-999.0,94,-99.99,,,-99.99,Homeseer,2013-03-06 16:27:00,
2013-03-06 11:32:00,38.2,37.1,29.99,North,-999,-999.0,-999.0,94,-99.99,,,-99.99,Homeseer,2013-03-06 16:32:00,
2013-03-06 11:37:00,38.2,37.3,29.99,North,-999,-999.0,-999.0,95,-99.99,,,-99.99,Homeseer,2013-03-06 16:37:00,
2013-03-06 11:42:00,38.4,37.5,29.99,North,-999,-999.0,-999.0,95,-99.99,,,-99.99,Homeseer,2013-03-06 16:42:00,
2013-03-06 11:47:00,38.5,37.4,29.99,North,-999,-999.0,-999.0,94,-99.99,,,-99.99,Homeseer,2013-03-06 16:47:00,
2013-03-06 11:52:00,38.5,37.2,29.98,North,-999,-999.0,-999.0,93,-99.99,,,-99.99,Homeseer,2013-03-06 16:52:00,
2013-03-06 11:57:00,38.2,36.9,29.98,North,-999,-999.0,-999.0,93,-99.99,,,-99.99,Homeseer,2013-03-06 16:57:00,
2013-03-06 12:02:00,38.6,37.3,29.98,North,-999,-999.0,-999.0,93,-99.99,,,-99.99,Homeseer,2013-03-06 17:02:00,
2013-03-06 12:07:00,38.3,37.2,29.97,North,-999,-999.0,-999.0,94,-99.99,,,-99.99,Homeseer,2013-03-06 17:07:00,
2013-03-06 12:12:00,38.3,37.2,29.97,North,-999,-999.0,-999.0,94,-99.99,,,-99.99,Homeseer,2013-03-06 17:12:00,
2013-03-06 12:17:00,38.3,37.2,29.98,North,-999,-999.0,-999.0,94,-99.99,,,-99.99,Homeseer,2013-03-06 17:17:00,
2013-03-06 12:22:00,38.2,37.1,29.98,North,-999,-999.0,-999.0,94,-99.99,,,-99.99,Homeseer,2013-03-06 17:22:00,
2013-03-06 12:28:00,38.6,37.7,29.98,North,-999,-999.0,-999.0,95,-99.99,,,-99.99,Homeseer,2013-03-06 17:28:00,
2013-03-06 12:33:00,39.0,37.9,29.98,North,-999,-999.0,-999.0,94,-99.99,,,-99.99,Homeseer,2013-03-06 17:33:00,
2013-03-06 12:38:00,38.9,37.6,29.98,North,-999,-999.0,-999.0,93,-99.99,,,-99.99,Homeseer,2013-03-06 17:38:00,
2013-03-06 12:43:00,39.0,37.5,29.98,North,-999,-999.0,-999.0,92,-99.99,,,-99.99,Homeseer,2013-03-06 17:43:00,
2013-03-06 12:49:00,38.8,37.1,29.98,North,-999,-999.0,-999.0,91,-99.99,,,-99.99,Homeseer,2013-03-06 17:49:00,
2013-03-06 12:54:00,38.8,37.3,29.98,North,-999,-999.0,-999.0,92,-99.99,,,-99.99,Homeseer,2013-03-06 17:54:00,
2013-03-06 12:59:00,38.9,37.4,29.97,North,-999,-999.0,-999.0,92,-99.99,,,-99.99,Homeseer,2013-03-06 17:59:00,
2013-03-06 13:04:00,38.5,37.2,29.98,North,-999,-999.0,-999.0,93,-99.99,,,-99.99,Homeseer,2013-03-06 18:04:00,
2013-03-06 13:10:00,38.5,37.2,29.97,North,-999,-999.0,-999.0,93,-99.99,,,-99.99,Homeseer,2013-03-06 18:10:00,
2013-03-06 13:16:00,38.2,36.9,29.97,North,-999,-999.0,-999.0,93,-99.99,,,-99.99,Homeseer,2013-03-06 18:16:00,
2013-03-06 13:21:00,38.6,37.3,29.97,North,-999,-999.0,-999.0,93,-99.99,,,-99.99,Homeseer,2013-03-06 18:21:00,
2013-03-06 13:27:00,38.6,37.1,29.97,North,-999,-999.0,-999.0,92,-99.99,,,-99.99,Homeseer,2013-03-06 18:27:00,
2013-03-06 13:32:00,38.9,37.6,29.96,North,-999,-999.0,-999.0,93,-99.99,,,-99.99,Homeseer,2013-03-06 18:32:00,
2013-03-06 13:37:00,39.2,37.7,29.97,North,-999,-999.0,-999.0,92,-99.99,,,-99.99,Homeseer,2013-03-06 18:37:00,
2013-03-06 13:42:00,38.5,36.6,29.97,North,-999,-999.0,-999.0,90,-99.99,,,-99.99,Homeseer,2013-03-06 18:42:00,
2013-03-06 13:47:00,38.8,37.1,29.97,North,-999,-999.0,-999.0,91,-99.99,,,-99.99,Homeseer,2013-03-06 18:47:00,
2013-03-06 13:52:00,39.1,37.2,29.97,North,-999,-999.0,-999.0,90,-99.99,,,-99.99,Homeseer,2013-03-06 18:52:00,
2013-03-06 13:57:00,39.0,37.3,29.97,North,-999,-999.0,-999.0,91,-99.99,,,-99.99,Homeseer,2013-03-06 18:57:00,
2013-03-06 14:02:00,39.2,37.5,29.96,North,-999,-999.0,-999.0,91,-99.99,,,-99.99,Homeseer,2013-03-06 19:02:00,
2013-03-06 14:07:00,39.4,37.7,29.97,North,-999,-999.0,-999.0,91,-99.99,,,-99.99,Homeseer,2013-03-06 19:07:00,
2013-03-06 14:13:00,39.5,37.8,29.97,North,-999,-999.0,-999.0,91,-99.99,,,-99.99,Homeseer,2013-03-06 19:13:00,
2013-03-06 14:18:00,39.1,37.4,29.97,North,-999,-999.0,-999.0,91,-99.99,,,-99.99,Homeseer,2013-03-06 19:18:00,
2013-03-06 14:23:00,38.8,36.9,29.97,North,-999,-999.0,-999.0,90,-99.99,,,-99.99,Homeseer,2013-03-06 19:23:00,
2013-03-06 14:28:00,38.2,36.9,29.96,North,-999,-999.0,-999.0,93,-99.99,,,-99.99,Homeseer,2013-03-06 19:28:00,
2013-03-06 14:33:00,38.2,37.1,29.96,North,-999,-999.0,-999.0,94,-99.99,,,-99.99,Homeseer,2013-03-06 19:33:00,
2013-03-06 14:38:00,38.2,37.1,29.97,North,-999,-999.0,-999.0,94,-99.99,,,-99.99,Homeseer,2013-03-06 19:38:00,
2013-03-06 14:43:00,38.4,37.5,29.96,North,-999,-999.0,-999.0,95,-99.99,,,-99.99,Homeseer,2013-03-06 19:43:00,
2013-03-06 14:48:00,38.4,37.3,29.97,North,-999,-999.0,-999.0,94,-99.99,,,-99.99,Homeseer,2013-03-06 19:48:00,
2013-03-06 14:53:00,38.3,37.4,29.97,North,-999,-999.0,-999.0,95,-99.99,,,-99.99,Homeseer,2013-03-06 19:53:00,
2013-03-06 14:58:00,38.4,37.3,29.97,North,-999,-999.0,-999.0,94,-99.99,,,-99.99,Homeseer,2013-03-06 19:58:00,
2013-03-06 15:03:00,38.4,37.1,29.97,North,-999,-999.0,-999.0,93,-99.99,,,-99.99,Homeseer,2013-03-06 20:03:00,
2013-03-06 15:08:00,38.9,37.6,29.97,North,-999,-999.0,-999.0,93,-99.99,,,-99.99,Homeseer,2013-03-06 20:08:00,
2013-03-06 15:13:00,38.5,37.2,29.97,North,-999,-999.0,-999.0,93,-99.99,,,-99.99,Homeseer,2013-03-06 20:13:00,
2013-03-06 15:18:00,37.7,36.2,29.96,North,-999,-999.0,-999.0,92,-99.99,,,-99.99,Homeseer,2013-03-06 20:18:00,
2013-03-06 15:24:00,38.3,36.8,29.96,North,-999,-999.0,-999.0,92,-99.99,,,-99.99,Homeseer,2013-03-06 20:24:00,
2013-03-06 15:29:00,38.2,36.1,29.96,North,-999,-999.0,-999.0,89,-99.99,,,-99.99,Homeseer,2013-03-06 20:29:00,
2013-03-06 15:34:00,38.3,35.7,29.97,North,-999,-999.0,-999.0,87,-99.99,,,-99.99,Homeseer,2013-03-06 20:34:00,
2013-03-06 15:39:00,38.6,35.6,29.97,North,-999,-999.0,-999.0,85,-99.99,,,-99.99,Homeseer,2013-03-06 20:39:00,
2013-03-06 15:44:00,38.8,35.6,29.96,North,-999,-999.0,-999.0,84,-99.99,,,-99.99,Homeseer,2013-03-06 20:44:00,
2013-03-06 15:49:00,39.0,36.0,29.96,North,-999,-999.0,-999.0,85,-99.99,,,-99.99,Homeseer,2013-03-06 20:49:00,
2013-03-06 15:54:00,38.9,35.7,29.96,North,-999,-999.0,-999.0,84,-99.99,,,-99.99,Homeseer,2013-03-06 20:54:00,
2013-03-06 15:59:00,38.8,34.7,29.97,North,-999,-999.0,-999.0,80,-99.99,,,-99.99,Homeseer,2013-03-06 20:59:00,
2013-03-06 16:04:00,38.8,35.2,29.97,North,-999,-999.0,-999.0,82,-99.99,,,-99.99,Homeseer,2013-03-06 21:04:00,
2013-03-06 16:09:00,38.8,34.9,29.97,North,-999,-999.0,-999.0,81,-99.99,,,-99.99,Homeseer,2013-03-06 21:09:00,
2013-03-06 16:14:00,38.8,34.5,29.98,North,-999,-999.0,-999.0,79,-99.99,,,-99.99,Homeseer,2013-03-06 21:14:00,
2013-03-06 16:19:00,38.6,34.5,29.98,North,-999,-999.0,-999.0,80,-99.99,,,-99.99,Homeseer,2013-03-06 21:19:00,
2013-03-06 16:24:00,38.3,33.5,29.97,North,-999,-999.0,-999.0,77,-99.99,,,-99.99,Homeseer,2013-03-06 21:24:00,
2013-03-06 16:29:00,38.9,34.4,29.98,North,-999,-999.0,-999.0,78,-99.99,,,-99.99,Homeseer,2013-03-06 21:29:00,
2013-03-06 16:34:00,39.1,34.8,29.98,North,-999,-999.0,-999.0,79,-99.99,,,-99.99,Homeseer,2013-03-06 21:34:00,
2013-03-06 16:39:00,38.8,34.7,29.98,North,-999,-999.0,-999.0,80,-99.99,,,-99.99,Homeseer,2013-03-06 21:39:00,
2013-03-06 16:44:00,38.3,34.7,29.97,North,-999,-999.0,-999.0,82,-99.99,,,-99.99,Homeseer,2013-03-06 21:44:00,
2013-03-06 16:49:00,38.0,34.4,29.97,North,-999,-999.0,-999.0,82,-99.99,,,-99.99,Homeseer,2013-03-06 21:49:00,
2013-03-06 16:54:00,38.1,35.6,29.97,North,-999,-999.0,-999.0,87,-99.99,,,-99.99,Homeseer,2013-03-06 21:54:00,
2013-03-06 16:59:00,38.8,35.4,29.98,North,-999,-999.0,-999.0,83,-99.99,,,-99.99,Homeseer,2013-03-06 21:59:00,
2013-03-06 17:04:00,38.9,35.0,29.99,North,-999,-999.0,-999.0,81,-99.99,,,-99.99,Homeseer,2013-03-06 22:04:00,
2013-03-06 17:09:00,38.4,35.0,29.99,North,-999,-999.0,-999.0,83,-99.99,,,-99.99,Homeseer,2013-03-06 22:09:00,
2013-03-06 17:14:00,38.1,35.1,30.00,North,-999,-999.0,-999.0,85,-99.99,,,-99.99,Homeseer,2013-03-06 22:14:00,
2013-03-06 17:19:00,37.7,34.5,30.00,North,-999,-999.0,-999.0,84,-99.99,,,-99.99,Homeseer,2013-03-06 22:19:00,
2013-03-06 17:24:00,37.8,34.8,30.00,North,-999,-999.0,-999.0,85,-99.99,,,-99.99,Homeseer,2013-03-06 22:24:00,
2013-03-06 17:29:00,37.6,34.9,30.01,North,-999,-999.0,-999.0,86,-99.99,,,-99.99,Homeseer,2013-03-06 22:29:00,
2013-03-06 17:34:00,37.5,35.0,30.01,North,-999,-999.0,-999.0,87,-99.99,,,-99.99,Homeseer,2013-03-06 22:34:00,
2013-03-06 17:39:00,37.6,35.3,30.01,North,-999,-999.0,-999.0,88,-99.99,,,-99.99,Homeseer,2013-03-06 22:39:00,
2013-03-06 17:44:00,37.6,35.3,30.01,North,-999,-999.0,-999.0,88,-99.99,,,-99.99,Homeseer,2013-03-06 22:44:00,
2013-03-06 17:49:00,37.5,35.2,30.00,North,-999,-999.0,-999.0,88,-99.99,,,-99.99,Homeseer,2013-03-06 22:49:00,
2013-03-06 17:56:00,37.4,35.1,30.00,North,-999,-999.0,-999.0,88,-99.99,,,-99.99,Homeseer,2013-03-06 22:56:00,
2013-03-06 18:02:00,37.2,35.3,30.00,North,-999,-999.0,-999.0,90,-99.99,,,-99.99,Homeseer,2013-03-06 23:02:00,
2013-03-06 18:07:00,37.3,35.2,30.00,North,-999,-999.0,-999.0,89,-99.99,,,-99.99,Homeseer,2013-03-06 23:07:00,
2013-03-06 18:12:00,37.4,35.3,30.00,North,-999,-999.0,-999.0,89,-99.99,,,-99.99,Homeseer,2013-03-06 23:12:00,
2013-03-06 18:17:00,37.1,34.8,30.00,North,-999,-999.0,-999.0,88,-99.99,,,-99.99,Homeseer,2013-03-06 23:17:00,
2013-03-06 18:22:00,36.8,34.7,30.01,North,-999,-999.0,-999.0,89,-99.99,,,-99.99,Homeseer,2013-03-06 23:22:00,
2013-03-06 18:27:00,37.1,35.2,30.01,North,-999,-999.0,-999.0,90,-99.99,,,-99.99,Homeseer,2013-03-06 23:27:00,
2013-03-06 18:32:00,37.1,35.2,30.00,North,-999,-999.0,-999.0,90,-99.99,,,-99.99,Homeseer,2013-03-06 23:32:00,
2013-03-06 18:37:00,37.1,35.2,29.99,North,-999,-999.0,-999.0,90,-99.99,,,-99.99,Homeseer,2013-03-06 23:37:00,
2013-03-06 18:42:00,37.2,35.3,29.99,North,-999,-999.0,-999.0,90,-99.99,,,-99.99,Homeseer,2013-03-06 23:42:00,
2013-03-06 18:47:00,37.0,34.9,29.99,North,-999,-999.0,-999.0,89,-99.99,,,-99.99,Homeseer,2013-03-06 23:47:00,
2013-03-06 18:52:00,37.2,35.3,29.99,North,-999,-999.0,-999.0,90,-99.99,,,-99.99,Homeseer,2013-03-06 23:52:00,
2013-03-06 18:57:00,37.1,35.4,29.99,North,-999,-999.0,-999.0,91,-99.99,,,-99.99,Homeseer,2013-03-06 23:57:00,
2013-03-06 19:02:00,37.0,35.5,29.99,North,-999,-999.0,-999.0,92,-99.99,,,-99.99,Homeseer,2013-03-07 00:02:00,
2013-03-06 19:07:00,37.0,35.7,30.00,North,-999,-999.0,-999.0,93,-99.99,,,-99.99,Homeseer,2013-03-07 00:07:00,
2013-03-06 19:12:00,37.0,35.7,30.00,North,-999,-999.0,-999.0,93,-99.99,,,-99.99,Homeseer,2013-03-07 00:12:00,
2013-03-06 19:17:00,36.8,35.7,30.00,North,-999,-999.0,-999.0,94,-99.99,,,-99.99,Homeseer,2013-03-07 00:17:00,
2013-03-06 19:22:00,36.7,35.8,30.00,North,-999,-999.0,-999.0,95,-99.99,,,-99.99,Homeseer,2013-03-07 00:22:00,
2013-03-06 19:27:00,36.5,35.6,30.00,North,-999,-999.0,-999.0,95,-99.99,,,-99.99,Homeseer,2013-03-07 00:27:00,
2013-03-06 19:32:00,36.8,35.9,30.00,North,-999,-999.0,-999.0,95,-99.99,,,-99.99,Homeseer,2013-03-07 00:32:00,
2013-03-06 19:37:00,36.4,35.7,30.01,North,-999,-999.0,-999.0,96,-99.99,,,-99.99,Homeseer,2013-03-07 00:37:00,
2013-03-06 19:42:00,36.6,35.7,30.01,North,-999,-999.0,-999.0,95,-99.99,,,-99.99,Homeseer,2013-03-07 00:42:00,
2013-03-06 19:47:00,36.3,35.4,30.01,North,-999,-999.0,-999.0,95,-99.99,,,-99.99,Homeseer,2013-03-07 00:47:00,
2013-03-06 19:52:00,36.6,35.7,30.02,North,-999,-999.0,-999.0,95,-99.99,,,-99.99,Homeseer,2013-03-07 00:52:00,
2013-03-06 19:57:00,36.3,35.6,30.03,North,-999,-999.0,-999.0,96,-99.99,,,-99.99,Homeseer,2013-03-07 00:57:00,
2013-03-06 20:02:00,36.0,35.3,30.01,North,-999,-999.0,-999.0,96,-99.99,,,-99.99,Homeseer,2013-03-07 01:02:00,
2013-03-06 20:07:00,36.3,35.6,30.02,North,-999,-999.0,-999.0,96,-99.99,,,-99.99,Homeseer,2013-03-07 01:07:00,
2013-03-06 20:12:00,36.4,35.7,30.01,North,-999,-999.0,-999.0,96,-99.99,,,-99.99,Homeseer,2013-03-07 01:12:00,
2013-03-06 20:17:00,36.3,35.7,30.01,North,-999,-999.0,-999.0,97,-99.99,,,-99.99,Homeseer,2013-03-07 01:17:00,
2013-03-06 20:22:00,36.3,35.7,30.00,North,-999,-999.0,-999.0,97,-99.99,,,-99.99,Homeseer,2013-03-07 01:22:00,
2013-03-06 20:27:00,36.2,35.5,30.00,North,-999,-999.0,-999.0,96,-99.99,,,-99.99,Homeseer,2013-03-07 01:27:00,
2013-03-06 20:32:00,36.0,35.3,30.00,North,-999,-999.0,-999.0,96,-99.99,,,-99.99,Homeseer,2013-03-07 01:32:00,
2013-03-06 20:37:00,36.0,35.4,30.00,North,-999,-999.0,-999.0,97,-99.99,,,-99.99,Homeseer,2013-03-07 01:37:00,
2013-03-06 20:42:00,35.8,35.2,30.00,North,-999,-999.0,-999.0,97,-99.99,,,-99.99,Homeseer,2013-03-07 01:42:00,
2013-03-06 20:47:00,35.8,34.9,30.00,North,-999,-999.0,-999.0,95,-99.99,,,-99.99,Homeseer,2013-03-07 01:47:00,
2013-03-06 20:52:00,35.9,35.3,30.00,North,-999,-999.0,-999.0,97,-99.99,,,-99.99,Homeseer,2013-03-07 01:52:00,
2013-03-06 20:57:00,36.0,35.4,29.99,North,-999,-999.0,-999.0,97,-99.99,,,-99.99,Homeseer,2013-03-07 01:57:00,
2013-03-06 21:02:00,35.9,35.5,29.99,North,-999,-999.0,-999.0,98,-99.99,,,-99.99,Homeseer,2013-03-07 02:02:00,
2013-03-06 21:07:00,35.8,35.4,29.99,North,-999,-999.0,-999.0,98,-99.99,,,-99.99,Homeseer,2013-03-07 02:07:00,
2013-03-06 21:12:00,35.9,35.3,29.99,North,-999,-999.0,-999.0,97,-99.99,,,-99.99,Homeseer,2013-03-07 02:12:00,
2013-03-06 21:17:00,35.8,35.2,29.99,North,-999,-999.0,-999.0,97,-99.99,,,-99.99,Homeseer,2013-03-07 02:17:00,
2013-03-06 21:22:00,35.9,35.5,29.99,North,-999,-999.0,-999.0,98,-99.99,,,-99.99,Homeseer,2013-03-07 02:22:00,
2013-03-06 21:27:00,35.6,35.2,29.98,North,-999,-999.0,-999.0,98,-99.99,,,-99.99,Homeseer,2013-03-07 02:27:00,
2013-03-06 21:32:00,35.7,35.3,29.97,North,-999,-999.0,-999.0,98,-99.99,,,-99.99,Homeseer,2013-03-07 02:32:00,
2013-03-06 21:37:00,35.8,35.6,29.98,North,-999,-999.0,-999.0,99,-99.99,,,-99.99,Homeseer,2013-03-07 02:37:00,
2013-03-06 21:42:00,35.7,35.3,29.97,North,-999,-999.0,-999.0,98,-99.99,,,-99.99,Homeseer,2013-03-07 02:42:00,
2013-03-06 21:47:00,35.9,35.5,29.97,North,-999,-999.0,-999.0,98,-99.99,,,-99.99,Homeseer,2013-03-07 02:47:00,
2013-03-06 21:52:00,35.6,35.0,29.98,North,-999,-999.0,-999.0,97,-99.99,,,-99.99,Homeseer,2013-03-07 02:52:00,
2013-03-06 21:57:00,35.6,35.0,29.98,North,-999,-999.0,-999.0,97,-99.99,,,-99.99,Homeseer,2013-03-07 02:57:00,
2013-03-06 22:02:00,35.8,35.4,29.97,North,-999,-999.0,-999.0,98,-99.99,,,-99.99,Homeseer,2013-03-07 03:02:00,
2013-03-06 22:07:00,35.8,35.4,29.98,North,-999,-999.0,-999.0,98,-99.99,,,-99.99,Homeseer,2013-03-07 03:07:00,
2013-03-06 22:12:00,35.9,35.5,29.98,North,-999,-999.0,-999.0,98,-99.99,,,-99.99,Homeseer,2013-03-07 03:12:00,
2013-03-06 22:17:00,35.8,35.4,29.98,North,-999,-999.0,-999.0,98,-99.99,,,-99.99,Homeseer,2013-03-07 03:17:00,
2013-03-06 22:22:00,35.9,35.5,29.98,North,-999,-999.0,-999.0,98,-99.99,,,-99.99,Homeseer,2013-03-07 03:22:00,
2013-03-06 22:27:00,35.8,35.4,29.98,North,-999,-999.0,-999.0,98,-99.99,,,-99.99,Homeseer,2013-03-07 03:27:00,
2013-03-06 22:32:00,35.9,35.5,29.98,North,-999,-999.0,-999.0,98,-99.99,,,-99.99,Homeseer,2013-03-07 03:32:00,
2013-03-06 22:37:00,35.8,35.4,29.98,North,-999,-999.0,-999.0,98,-99.99,,,-99.99,Homeseer,2013-03-07 03:37:00,
2013-03-06 22:42:00,35.6,35.2,29.98,North,-999,-999.0,-999.0,98,-99.99,,,-99.99,Homeseer,2013-03-07 03:42:00,
2013-03-06 22:47:00,35.8,35.4,29.98,North,-999,-999.0,-999.0,98,-99.99,,,-99.99,Homeseer,2013-03-07 03:47:00,
2013-03-06 22:52:00,35.7,35.3,29.98,North,-999,-999.0,-999.0,98,-99.99,,,-99.99,Homeseer,2013-03-07 03:52:00,
2013-03-06 22:57:00,35.8,35.4,29.98,North,-999,-999.0,-999.0,98,-99.99,,,-99.99,Homeseer,2013-03-07 03:57:00,
2013-03-06 23:02:00,35.8,35.4,29.97,North,-999,-999.0,-999.0,98,-99.99,,,-99.99,Homeseer,2013-03-07 04:02:00,
2013-03-06 23:07:00,35.8,35.4,29.97,North,-999,-999.0,-999.0,98,-99.99,,,-99.99,Homeseer,2013-03-07 04:07:00,
2013-03-06 23:12:00,35.8,35.4,29.97,North,-999,-999.0,-999.0,98,-99.99,,,-99.99,Homeseer,2013-03-07 04:12:00,
2013-03-06 23:17:00,35.8,35.4,29.97,North,-999,-999.0,-999.0,98,-99.99,,,-99.99,Homeseer,2013-03-07 04:17:00,
2013-03-06 23:22:00,35.7,35.3,29.97,North,-999,-999.0,-999.0,98,-99.99,,,-99.99,Homeseer,2013-03-07 04:22:00,
2013-03-06 23:27:00,35.7,35.1,29.97,North,-999,-999.0,-999.0,97,-99.99,,,-99.99,Homeseer,2013-03-07 04:27:00,
2013-03-06 23:32:00,35.6,34.9,29.97,North,-999,-999.0,-999.0,96,-99.99,,,-99.99,Homeseer,2013-03-07 04:32:00,
2013-03-06 23:37:00,35.5,35.1,29.97,North,-999,-999.0,-999.0,98,-99.99,,,-99.99,Homeseer,2013-03-07 04:37:00,
2013-03-06 23:42:00,35.6,35.2,29.97,North,-999,-999.0,-999.0,98,-99.99,,,-99.99,Homeseer,2013-03-07 04:42:00,
2013-03-06 23:47:00,35.5,35.1,29.97,North,-999,-999.0,-999.0,98,-99.99,,,-99.99,Homeseer,2013-03-07 04:47:00,
2013-03-06 23:52:00,35.4,35.0,29.98,North,-999,-999.0,-999.0,98,-99.99,,,-99.99,Homeseer,2013-03-07 04:52:00,
2013-03-06 23:57:00,35.5,35.1,29.98,North,-999,-999.0,-999.0,98,-99.99,,,-99.99,Homeseer,2013-03-07 04:57:00,